Regional Weather Roundup
Issued by NWS

Home | Current Version | Previous Version | Graphics & Text | Print | Product List | Glossary Off
Versions: 1 2 3 4 5 6 7 8 9 10 11 12 13 14 15 16 17 18 19 20 21 22 23 24 25 26 27 28 29 30 31 32 33 34 35 36 37 38 39 40 41 42 43 44 45 46 47 48 49 50

000
ASUS43 KLSX 301507
RWRMO

WEATHER SUMMARY FOR MISSOURI
NATIONAL WEATHER SERVICE SPRINGFIELD MO
1000 AM CDT THU JUL 30 2015

NOTE: "FAIR" INDICATES FEW OR NO CLOUDS BELOW 12,000 FEET WITH NO
       SIGNIFICANT WEATHER AND/OR OBSTRUCTIONS TO VISIBILITY.
       CURRENT SKY AND/OR WEATHER CONDITIONS ARE NOT AVAILABLE FOR
       CHILLICOTHE AND FARMINGTON.

MOZ001>031-035>038-043-044-053-054-301600-
...NORTHERN AND WESTERN MISSOURI...

CITY           SKY/WX    TMP DP  RH WIND       PRES   REMARKS
KANSAS CTY INT PTSUNNY   78  65  63 W3        30.22S
KANSAS C DTWN  MOSUNNY   80  65  59 CALM      30.21S
LEE`S SUMMIT   MOSUNNY   79  63  57 CALM      30.22S
ST JOSEPH      SUNNY     76  68  76 CALM      30.22S
CHILLICOTHE      N/A     80  65  59 VRB3      30.21S
KIRKSVILLE     SUNNY     79  62  56 W8        30.21R

$$
MOZ066>068-077>081-088>096-101>105-301600-
...SOUTHWEST MISSOURI...

CITY           SKY/WX    TMP DP  RH WIND       PRES   REMARKS
SPRINGFIELD    MOSUNNY   78  62  57 E8        30.21S
JOPLIN         MOSUNNY   81  64  56 NE12      30.19S

$$
MOZ032>034-039>042-045>050-055>058-069>072-301600-
...CENTRAL MISSOURI...

CITY           SKY/WX    TMP DP  RH WIND       PRES   REMARKS
COLUMBIA       SUNNY     81  62  52 CALM      30.20S
JEFFERSON CITY SUNNY     77  66  68 CALM      30.19S
ROLLA          SUNNY     80  60  50 NE5       30.20R
SEDALIA        SUNNY     83  61  47 CALM      30.22S
WHITEMAN AFB   PTSUNNY   79  63  58 VRB1      30.20F
WARRENSBURG    SUNNY     77  63  61 CALM      30.21S
OSAGE BEACH    SUNNY     79  64  61 CALM      30.21S

$$
MOZ051-052-059>065-301600-
...EAST CENTRAL MISSOURI...

CITY           SKY/WX    TMP DP  RH WIND       PRES   REMARKS
ST LOUIS INTL  MOSUNNY   84  61  45 W3        30.17S
SPIRIT OF STL  SUNNY     80  65  59 CALM      30.16S
ST CHARLES     SUNNY     82  60  47 NW5       30.15S

$$
MOZ072>076-082>087-097>100-106>115-301600-
...SOUTH CENTRAL AND SOUTHEAST MISSOURI...

CITY           SKY/WX    TMP DP  RH WIND       PRES   REMARKS
CAPE GIRARDEAU NOT AVBL
FARMINGTON     SUNNY     79  63  57 NE7       30.23S
POPLAR BLUFF   SUNNY     80  63  55 NE10      30.15R
WEST PLAINS    SUNNY     79  62  56 NE6       30.22S

$$


USA.gov is the U.S. government's official web portal to all federal, state and local government web resources and services.